Theta_e
298 289 286 283 285 288 291 292 291 291 294 293 291 289 287 288 288 291 292 296 294 290 288 288 288 288 290 290 291 294 294 295 294 295 296 296 299 300 301 304 305 305 306 308 311 312 312 312 311 312 312 312 311 311 312 311 310 310 311 312 313 313 313 314 313 313 312 310 306 308 310 309 309 312 312 312 312 313 315 316 318 319 319 319 321 321
298 288 286 289 290 292 294 297 296 296 294 292 289 288 286 287 287 291 293 297 296 292 289 290 290 290 291 292 293 294 295 294 294 294 294 297 298 300 301 303 305 306 307 308 309 311 312 311 311 312 312 312 309 310 311 310 310 311 312 313 313 312 314 313 314 315 313 309 305 307 308 306 311 312 309 309 310 313 317 316 315 316 313 313 316 321
289 286 290 293 295 296 298 298 296 294 292 291 288 287 287 285 288 290 294 297 297 292 288 291 290 291 293 294 294 293 294 293 294 296 296 296 297 298 299 301 305 304 303 306 309 310 311 311 311 311 311 311 311 311 311 311 311 312 312 313 313 313 314 313 315 313 310 310 309 306 306 310 309 310 310 308 313 318 313 313 315 314 312 312 312 314
286 289 293 296 298 298 296 296 294 293 290 288 286 284 285 287 287 282 289 295 296 294 290 291 290 290 293 295 295 295 295 295 297 297 297 298 298 298 299 300 303 303 302 305 307 309 310 311 311 310 310 310 310 311 310 310 311 313 313 312 313 313 314 314 315 315 310 312 310 309 309 309 309 310 317 310 310 312 312 312 313 313 312 313 313 314
289 293 297 297 297 297 294 294 292 287 288 289 291 289 287 288 289 287 287 293 293 292 294 291 285 284 287 291 292 296 296 297 297 298 297 297 299 300 301 300 301 302 303 305 308 309 309 310 309 310 310 310 310 310 310 310 312 314 312 312 314 313 313 313 316 312 313 314 311 313 313 313 312 312 307 306 307 310 314 313 310 311 312 312 313 313
291 296 300 298 295 295 294 291 291 289 286 285 288 291 291 291 290 291 291 289 280 282 287 291 279 277 282 288 291 294 293 294 294 294 296 297 297 297 299 300 300 302 305 307 308 309 310 311 310 310 310 309 309 310 310 310 313 314 312 313 314 312 312 313 312 312 313 312 311 310 309 308 307 306 305 303 305 306 307 307 310 312 312 312 312 313
291 296 298 296 295 294 293 290 292 292 285 285 288 293 293 292 292 291 291 287 281 281 286 292 281 275 282 287 290 291 291 293 293 294 296 296 296 297 299 300 301 301 302 305 309 310 310 311 310 310 310 309 309 310 311 311 312 314 313 313 315 313 311 313 312 313 313 309 310 311 310 309 309 307 304 303 304 306 306 307 308 310 312 312 312 313
296 295 296 295 294 292 289 290 292 291 286 284 290 293 294 292 291 291 290 287 281 287 287 289 284 279 279 285 290 291 291 291 291 291 294 296 296 297 299 300 301 301 302 305 308 310 311 311 311 310 311 310 310 311 311 311 313 313 313 314 314 313 313 312 312 312 311 310 309 310 310 310 307 306 304 306 307 307 310 306 308 310 312 313 313 312
294 294 294 293 292 288 288 289 293 293 288 286 292 295 293 292 291 291 286 283 284 283 280 279 288 281 276 283 289 291 288 290 291 292 293 295 296 297 298 299 300 301 303 305 307 309 310 311 311 312 311 312 311 311 312 312 313 314 315 315 315 313 312 311 312 312 311 312 311 312 312 311 309 305 307 309 312 310 310 308 309 310 311 309 312 313
294 296 295 295 291 288 290 292 293 294 291 292 294 295 292 292 291 288 283 283 280 279 276 280 284 279 278 282 285 288 288 288 290 292 294 295 296 297 298 299 300 300 300 303 306 309 311 312 312 313 313 313 312 312 314 313 314 313 316 316 315 312 311 311 312 312 311 312 314 311 310 311 309 308 307 306 307 307 306 306 306 307 308 310 311 310
292 300 305 296 291 292 292 293 293 294 294 295 293 292 287 286 284 285 282 280 277 273 276 283 284 283 277 280 284 285 287 289 289 291 293 294 297 298 299 299 299 299 299 302 304 308 311 313 313 313 313 313 313 313 313 314 314 313 316 316 315 313 311 312 311 311 311 312 313 311 308 309 308 307 307 305 305 306 305 305 306 306 307 310 310 311
291 292 295 294 297 296 294 292 293 293 293 293 289 285 283 282 282 278 277 278 273 269 279 283 285 284 276 279 283 287 289 290 291 292 292 293 295 297 297 299 299 300 300 300 303 306 309 310 311 311 312 313 313 313 313 313 314 314 316 316 315 313 310 311 311 310 311 313 312 311 307 307 308 308 307 306 306 305 307 306 307 307 308 309 310 310
287 289 290 293 300 296 291 291 286 287 289 288 285 284 280 275 271 270 274 272 273 275 280 283 285 281 279 283 288 290 291 294 293 292 292 294 296 297 297 298 300 300 300 300 302 306 307 309 310 311 312 312 313 314 314 314 314 313 315 316 315 313 310 311 311 310 311 313 311 309 308 307 308 308 308 306 306 305 306 306 306 306 307 306 307 308
283 288 291 291 293 295 291 287 281 284 282 285 284 278 277 274 270 267 269 271 275 279 283 284 286 281 282 286 289 289 292 294 294 295 294 294 295 296 297 298 298 299 301 301 303 307 307 308 310 312 312 313 314 314 314 314 314 314 314 315 315 314 311 311 310 310 309 312 311 309 309 308 308 307 307 306 307 306 306 308 306 307 306 306 308 306
277 278 284 290 287 294 291 289 286 283 282 284 285 285 280 276 274 269 273 271 272 276 280 287 282 276 278 283 290 293 295 296 295 295 295 294 294 294 296 296 296 298 299 302 304 308 308 309 310 311 312 313 314 315 315 314 314 314 313 315 315 314 312 311 310 310 309 311 310 309 309 309 308 308 306 305 307 307 305 306 306 307 306 306 307 307
284 280 285 292 293 294 291 292 291 288 286 284 287 285 281 278 278 277 275 275 277 275 276 276 279 278 282 289 294 294 294 295 297 297 297 296 296 296 295 295 296 298 301 302 303 307 308 309 310 311 312 314 315 315 315 314 314 314 314 314 315 315 313 312 310 310 309 310 310 309 309 309 309 310 308 308 308 308 307 306 306 306 306 306 306 306
283 280 288 291 292 291 292 295 292 290 281 287 287 282 285 288 286 279 278 280 276 275 273 274 279 282 285 288 289 291 294 294 295 296 296 295 297 298 297 297 296 296 297 300 302 305 307 308 309 311 311 313 314 315 315 314 314 315 315 314 314 314 314 313 311 310 309 309 308 309 310 309 309 308 307 308 308 307 307 307 306 306 306 306 307 308
279 278 287 289 288 292 294 294 292 293 291 286 284 285 289 292 291 283 276 274 274 271 272 277 275 275 279 278 289 291 292 293 293 293 295 295 296 296 296 297 297 298 298 298 300 301 307 309 310 311 311 312 313 315 315 315 315 315 316 315 314 314 314 313 312 311 309 309 308 309 309 309 310 309 308 307 308 307 307 306 306 306 307 306 308 309
285 279 282 289 290 291 293 292 290 292 293 288 286 292 288 278 282 282 278 271 271 269 267 273 276 277 279 281 284 288 288 290 292 293 294 295 295 296 296 297 298 298 299 299 297 298 301 304 308 310 310 312 313 315 316 316 316 315 315 315 315 314 315 314 313 312 311 310 310 310 310 309 309 308 308 307 308 307 306 306 306 307 307 306 307 309
285 278 280 287 289 291 289 286 281 284 291 292 292 287 288 283 281 278 279 279 277 270 270 271 276 273 281 281 287 288 289 290 291 292 292 293 295 295 296 296 297 298 298 298 299 299 303 304 306 307 309 311 312 312 315 315 315 315 315 315 315 315 315 314 313 313 311 310 310 310 309 309 309 308 308 307 306 306 306 306 306 305 305 306 307 304
284 283 275 281 289 289 281 284 283 283 281 284 285 282 283 283 285 283 283 279 276 268 267 266 268 273 280 285 287 289 289 290 291 291 292 292 292 294 295 295 295 296 297 298 300 300 300 303 306 306 306 309 312 312 314 315 315 315 315 315 315 314 314 314 313 312 312 311 310 310 309 308 308 307 307 306 306 306 305 306 307 306 306 305 304 304
282 282 280 279 283 282 284 286 289 288 287 286 284 282 283 281 279 276 275 282 281 277 272 270 272 275 283 293 291 290 291 291 291 291 291 292 292 291 292 292 294 295 295 296 298 299 301 301 303 306 306 307 309 311 312 315 316 315 314 315 315 315 315 314 313 313 313 312 311 310 309 308 307 307 306 306 305 306 305 305 305 305 305 304 303 303
287 282 279 279 279 282 286 290 291 291 290 288 286 282 286 282 281 278 273 273 279 279 280 277 273 278 287 291 291 292 291 291 291 291 291 291 291 291 292 293 293 293 293 294 295 297 300 300 300 304 306 306 306 308 309 311 314 314 315 315 315 315 315 315 315 314 313 312 311 310 309 308 307 306 305 305 305 305 305 305 304 305 304 303 302 302
304 278 277 279 282 284 287 288 289 290 289 286 284 284 283 280 283 280 279 278 277 276 278 275 274 277 285 291 291 291 292 291 292 291 290 291 291 292 292 292 293 293 294 294 295 296 295 299 300 301 304 306 306 307 309 310 313 315 316 316 315 315 316 316 315 314 313 312 311 310 308 307 307 305 305 305 305 305 305 305 304 305 303 303 302 302
282 281 280 275 273 276 278 280 281 285 285 280 282 281 285 283 284 284 283 281 277 277 278 274 270 273 285 290 290 290 289 290 291 292 291 291 291 291 292 292 292 292 294 294 295 295 296 297 298 300 301 303 305 307 309 310 311 313 316 316 315 315 316 316 316 314 313 312 310 309 308 307 306 305 305 305 304 304 304 304 304 304 303 302 301 301
284 281 281 275 271 269 268 267 269 273 277 281 283 283 284 283 282 280 275 277 273 276 280 275 271 278 284 288 288 288 288 289 289 290 292 291 291 291 291 291 292 293 293 293 294 294 294 296 298 300 301 303 303 304 306 308 310 312 315 314 314 314 314 315 314 314 313 311 310 309 308 307 306 305 305 305 304 304 304 304 304 303 302 302 301 299
282 282 279 276 276 275 277 276 280 284 280 278 281 282 282 283 282 280 277 274 273 272 275 276 279 281 283 285 285 286 287 287 288 288 289 289 290 290 291 291 292 292 292 293 293 294 295 297 297 298 300 301 303 304 306 306 309 310 311 311 313 315 314 315 314 313 311 311 311 309 308 307 306 305 305 305 305 304 304 304 303 303 302 302 300 300
281 279 281 281 281 282 282 283 284 284 281 282 281 282 284 281 282 282 277 276 277 276 273 278 279 279 282 284 284 284 285 286 287 287 288 289 290 291 291 292 295 293 293 294 294 294 295 296 297 298 299 300 302 304 305 310 309 310 312 312 313 313 313 314 314 313 313 311 310 309 308 307 306 305 305 305 304 304 304 303 301 301 300 301 298 298
282 279 281 282 281 283 284 284 284 282 282 282 282 281 281 282 281 279 277 280 280 274 274 279 279 277 280 283 284 284 286 286 286 287 288 290 291 292 292 292 292 292 293 294 294 295 295 296 297 298 300 300 301 302 303 305 308 310 311 312 313 313 312 313 313 312 311 311 310 309 307 306 306 305 305 305 304 304 303 302 301 300 299 299 298 299
285 278 281 283 282 282 282 283 283 282 281 282 282 282 282 280 280 280 280 280 281 279 280 281 279 278 281 282 284 286 287 287 288 290 290 291 290 291 291 290 291 291 293 293 294 295 295 296 296 297 299 299 301 302 303 303 305 308 307 308 310 311 310 313 312 312 311 311 310 308 307 307 307 306 305 304 304 303 302 301 300 299 298 297 296 296
285 279 287 284 280 279 282 283 283 282 281 281 282 281 280 280 280 280 279 279 281 279 278 279 276 276 281 285 286 288 288 289 290 289 289 289 290 290 290 289 290 292 292 293 293 294 295 296 296 297 297 299 300 300 301 302 304 307 308 307 310 312 311 311 311 312 311 311 310 309 307 307 307 306 305 304 303 301 301 300 300 298 296 296 295 295
287 280 284 283 279 277 281 282 282 281 281 279 279 279 279 279 277 278 278 279 279 276 278 277 276 274 279 286 287 288 289 289 288 288 289 289 289 289 288 290 290 291 292 292 293 293 294 295 296 296 297 298 299 300 300 301 303 304 306 308 310 311 311 311 310 310 310 311 309 309 309 308 307 306 305 304 302 301 301 299 298 297 295 295 295 295
284 281 279 277 277 272 280 282 281 277 277 278 275 275 280 281 280 280 281 281 282 281 276 276 274 276 283 287 286 287 287 287 288 289 289 289 289 289 289 290 290 291 291 291 292 294 294 295 296 297 297 298 299 300 302 302 302 304 306 305 309 310 310 310 308 308 308 309 309 309 308 306 306 305 304 303 302 301 300 298 297 295 295 295 294 294
284 284 280 280 274 271 279 280 280 274 271 271 275 280 282 281 280 281 279 281 284 282 278 277 280 284 285 284 285 285 286 287 288 290 291 289 288 289 289 290 290 290 291 291 292 293 294 295 296 297 298 298 299 300 302 303 303 303 305 306 307 308 309 308 307 307 307 308 308 308 308 307 305 305 303 303 302 301 299 298 297 295 295 294 293 291
283 282 279 279 276 272 274 278 273 269 273 280 282 284 285 284 283 281 282 283 284 284 285 284 285 284 286 287 287 287 287 289 290 290 290 291 290 289 289 290 290 291 291 291 292 293 294 295 296 297 298 299 300 300 301 302 303 303 303 304 306 307 307 306 307 306 306 307 307 307 307 306 306 304 303 303 301 300 299 298 294 295 294 292 292 292
281 280 278 277 274 272 271 270 266 272 278 282 283 285 286 286 283 285 280 281 284 284 285 282 285 285 286 286 287 288 288 290 289 290 290 291 292 291 289 289 290 291 291 292 292 293 294 295 296 296 297 300 300 300 301 301 303 303 302 303 306 307 308 306 306 305 305 306 305 306 306 306 305 304 302 302 300 299 298 296 297 294 293 292 290 289
285 281 279 275 277 274 270 268 273 277 279 280 279 281 282 281 280 280 274 276 284 285 284 284 284 284 285 286 287 287 288 286 283 284 289 291 291 292 291 291 291 291 292 292 293 294 295 296 296 297 298 298 299 299 300 301 303 303 302 302 305 307 307 306 305 304 304 305 305 304 304 303 304 303 302 301 300 298 297 295 293 293 293 292 290 289
285 281 279 277 274 277 275 270 268 268 270 270 280 285 289 287 284 282 279 276 282 284 286 284 284 284 284 284 285 285 287 285 282 284 286 289 291 291 292 292 292 292 292 293 293 294 295 295 296 297 297 297 297 299 300 302 302 303 303 302 304 305 306 305 304 305 305 305 305 305 304 304 303 302 301 299 299 297 295 294 294 294 293 292 290 289
285 286 281 280 275 275 273 271 269 267 268 274 280 285 288 287 286 281 278 275 280 284 284 286 285 284 284 285 285 285 285 281 281 284 287 288 290 291 291 292 293 293 293 293 293 294 295 295 295 297 297 297 297 299 300 301 302 303 302 302 303 304 304 305 304 304 305 305 305 305 305 304 303 301 299 298 297 296 295 294 294 293 291 291 289 289
281 278 278 277 276 275 273 271 270 272 271 282 284 285 287 288 283 280 272 268 280 282 284 285 286 285 285 284 284 284 283 281 282 286 289 291 291 292 292 292 293 293 293 294 294 295 295 296 296 296 296 296 298 300 301 302 302 301 302 302 303 303 303 304 304 305 304 305 305 304 303 303 301 300 299 297 296 296 295 294 293 291 290 289 289 289
278 278 279 275 275 276 277 274 273 276 282 285 283 286 287 289 284 273 269 274 281 283 284 285 286 286 285 285 285 283 284 287 289 291 292 292 292 293 294 293 293 293 293 293 294 295 295 295 295 296 296 298 299 300 301 301 301 301 302 302 302 302 303 304 305 305 304 303 303 303 303 301 300 299 298 298 297 296 294 292 292 291 289 289 287 287
275 276 277 276 274 273 274 273 275 275 283 287 288 289 290 282 272 271 279 284 285 284 285 286 286 286 286 287 284 286 289 290 291 292 292 292 292 292 293 293 293 293 294 294 295 294 294 295 295 296 296 298 299 300 301 301 300 301 301 301 302 302 304 304 304 304 303 303 303 303 301 299 298 298 297 295 295 294 294 292 292 292 291 289 288 287
275 273 271 274 275 275 272 269 270 269 281 289 288 284 285 277 277 282 284 284 285 284 286 286 287 287 286 286 285 288 289 290 290 291 291 291 291 291 291 292 292 292 292 292 293 294 295 295 295 295 296 297 299 300 301 300 299 299 299 301 300 302 304 304 304 303 302 301 301 300 298 297 296 296 297 295 294 293 293 291 291 291 289 288 286 285
281 273 272 273 278 271 268 268 270 277 283 288 286 279 281 284 287 287 286 284 284 286 286 285 285 285 286 287 288 287 287 288 289 289 289 290 290 290 291 291 291 291 292 293 293 294 295 295 295 296 296 298 300 301 301 300 299 299 299 301 302 301 301 302 301 301 301 299 299 297 296 296 295 296 295 295 294 293 291 290 290 289 289 287 286 284
281 278 278 274 279 275 270 271 279 281 283 285 287 286 288 289 290 289 288 286 286 286 287 286 287 287 287 288 288 287 287 288 288 289 288 289 290 289 289 290 290 291 291 291 292 294 295 295 295 296 298 301 303 303 303 302 300 299 299 301 301 300 301 301 300 300 299 299 298 296 296 295 295 295 295 295 293 292 290 289 288 287 285 285 284 283
282 283 284 282 278 283 284 284 284 282 283 284 288 290 289 289 291 290 289 287 285 286 286 287 288 288 288 288 287 288 288 288 288 288 289 289 289 289 290 290 290 291 292 292 293 294 295 296 297 298 300 301 303 302 301 303 302 299 301 302 301 302 302 301 300 298 298 297 296 297 296 295 295 294 293 293 292 291 289 289 288 288 286 284 284 283
281 281 278 275 277 276 272 279 282 284 284 285 284 287 289 290 290 289 288 287 287 288 288 289 288 288 289 288 289 289 289 289 289 289 289 289 289 289 289 289 290 292 293 294 295 296 296 298 299 299 299 297 301 302 302 302 303 301 301 300 301 301 301 299 298 297 297 296 295 294 294 293 292 291 290 289 289 288 288 287 287 287 287 286 284 283
276 282 279 278 276 273 273 279 282 284 284 284 285 286 286 287 287 288 288 288 289 289 289 290 288 288 288 288 289 289 289 290 289 289 289 289 289 289 290 290 291 292 295 296 297 298 298 299 299 300 299 299 301 302 302 302 302 304 302 301 301 301 299 298 296 296 295 294 293 292 292 291 289 290 288 288 288 286 285 287 287 287 286 284 284 284
280 283 273 277 277 280 281 282 282 282 283 283 284 285 285 286 287 287 288 288 288 288 289 289 289 289 289 289 289 288 288 289 289 289 288 289 289 290 291 292 293 294 295 296 297 298 299 300 300 300 300 300 301 301 301 301 302 304 302 301 301 300 298 296 294 294 293 293 292 291 291 291 290 290 288 287 287 285 287 288 287 287 285 284 285 286
281 277 280 277 273 273 274 278 280 276 276 281 282 284 285 287 287 287 286 287 287 288 288 288 289 289 289 289 289 289 288 289 289 288 288 289 290 291 292 293 294 295 296 297 299 300 300 300 300 300 300 301 301 301 300 300 301 301 302 301 300 299 296 294 294 294 294 293 293 291 290 291 290 289 289 289 289 289 289 288 289 287 287 286 289 288
279 280 279 275 272 274 279 281 281 281 281 283 284 285 286 288 288 287 287 287 288 288 288 288 288 288 289 289 288 288 288 288 289 290 290 291 292 294 294 295 295 296 297 298 299 299 299 300 300 300 299 300 299 299 299 300 301 301 300 300 298 297 296 295 293 293 293 292 292 291 291 290 289 290 290 289 289 286 286 286 286 289 289 288 288 288
Wind_Speed
3 1 4 4 6 6 4 6 7 6 5 2 1 1 0 1 3 4 3 4 3 2 1 3 4 5 6 4 6 5 3 2 4 8 6 8 10 11 10 11 12 13 15 12 12 13 13 14 13 10 9 9 8 9 10 10 8 9 11 9 9 8 6 6 4 3 3 3 3 1 2 2 1 3 4 3 1 2 3 3 3 3 4 4 4 3
3 0 6 9 9 6 6 2 3 3 1 3 2 2 4 1 3 4 2 2 3 3 1 3 2 3 5 4 5 5 0 5 5 6 6 6 9 11 13 13 14 15 6 6 6 7 6 7 8 9 9 11 12 9 11 12 11 9 9 10 10 7 7 7 7 5 4 3 6 6 6 3 2 3 3 2 1 2 1 3 4 3 4 4 4 4
2 6 10 10 8 3 1 1 2 3 3 2 2 0 2 3 1 4 5 6 5 5 1 1 2 3 6 6 3 3 3 4 6 8 8 9 9 10 11 11 12 7 7 7 7 6 7 8 8 9 10 11 14 13 12 11 10 9 9 9 7 7 8 7 6 5 4 2 4 4 4 6 2 1 0 2 1 1 3 3 3 3 4 4 4 3
3 6 13 10 2 4 1 1 3 3 3 3 3 2 2 3 2 3 5 4 6 2 1 0 1 7 7 4 6 7 7 4 5 6 7 4 8 11 12 13 15 11 9 11 12 12 10 12 11 8 9 10 8 11 9 9 12 9 10 8 7 7 7 7 6 6 4 5 4 3 6 2 2 2 2 4 3 2 3 3 1 3 4 4 4 3
9 11 4 2 5 6 6 2 2 1 1 1 1 1 1 2 2 4 3 3 4 4 1 4 6 6 3 4 5 7 1 2 4 7 8 5 5 6 5 3 6 12 12 13 12 10 10 10 12 15 13 10 11 11 12 12 11 10 12 10 9 8 7 6 7 6 6 7 6 6 5 4 5 4 3 3 2 1 1 1 1 2 3 3 2 1
8 12 1 3 5 5 5 2 3 4 1 3 3 5 5 4 3 2 1 1 3 3 2 2 3 2 3 3 7 9 3 4 2 4 11 11 6 4 6 10 9 8 13 18 17 17 16 16 13 10 10 11 11 12 13 12 12 11 10 9 8 6 5 7 8 9 8 9 9 7 7 5 3 3 3 4 4 3 3 3 1 0 1 3 2 1
8 3 6 6 7 5 3 3 3 4 2 1 5 4 5 4 3 1 1 3 1 4 3 0 2 7 5 6 5 6 3 7 4 4 11 10 6 7 9 12 11 10 8 8 12 13 13 12 13 14 14 14 13 13 11 10 10 10 10 10 9 8 6 7 8 8 8 7 7 8 8 7 8 7 3 2 3 4 3 1 2 1 0 1 2 1
0 1 3 3 3 3 3 1 1 6 5 2 3 3 2 0 1 2 2 5 4 1 2 3 3 3 5 7 6 4 3 7 8 7 9 9 7 10 10 10 10 9 10 13 15 18 19 18 17 16 16 14 15 13 10 9 8 11 11 10 9 7 7 7 8 8 8 9 6 6 5 5 6 7 6 4 4 3 3 3 2 1 0 0 0 1
0 3 3 2 2 2 4 4 3 4 4 4 3 4 3 1 2 1 5 4 1 1 6 5 1 1 3 7 5 1 4 7 9 10 9 11 9 11 11 10 10 10 12 15 14 17 18 18 18 15 15 15 11 10 12 12 12 10 10 10 8 8 8 7 9 9 6 8 8 7 7 5 4 4 5 4 3 4 3 3 1 0 0 1 2 2
2 5 6 6 5 5 4 4 5 8 1 4 3 1 2 3 2 2 2 2 3 4 6 6 1 1 7 8 6 0 1 7 8 9 11 11 11 12 13 11 10 8 6 8 15 17 17 17 17 17 14 11 12 12 12 11 8 8 8 10 10 9 8 8 9 9 7 7 7 7 6 7 5 4 3 4 5 4 3 4 2 1 1 0 1 1
5 5 6 4 5 6 4 6 5 6 7 1 3 2 1 6 5 2 5 3 4 1 6 4 1 1 4 8 8 3 4 4 5 7 6 5 8 12 12 11 9 8 7 8 10 13 17 17 17 15 16 15 10 8 9 8 9 9 10 11 12 11 8 9 10 9 9 7 7 8 7 8 8 6 7 5 4 4 3 4 3 2 2 1 1 0
5 1 1 2 4 2 3 1 1 3 3 3 0 2 1 5 6 4 3 4 2 3 7 2 3 4 1 9 6 6 5 6 7 10 12 5 9 11 8 7 8 8 7 7 9 11 12 11 7 5 9 11 11 8 8 8 8 9 10 11 11 9 10 9 10 10 10 9 8 7 8 9 9 10 8 9 8 7 7 5 4 3 1 2 1 0
2 5 2 4 3 10 1 2 7 4 3 6 5 6 5 2 3 2 3 2 2 6 6 0 4 1 5 10 11 9 9 11 4 7 8 9 10 11 8 9 10 10 7 7 9 9 9 12 13 13 11 8 8 11 12 12 11 10 10 12 12 12 11 11 10 11 10 9 9 9 9 8 9 10 9 9 8 7 8 7 5 4 4 3 2 2
6 3 3 2 4 2 6 3 1 4 1 6 5 3 4 1 1 1 4 1 3 5 5 2 2 3 5 8 6 8 10 8 7 9 8 6 7 10 12 12 10 8 9 8 10 11 13 13 12 15 15 14 13 13 14 14 12 11 11 12 13 14 12 11 10 10 10 10 9 9 9 9 9 9 9 8 9 8 7 8 7 7 7 6 6 4
1 4 5 2 2 2 1 7 9 6 4 6 3 7 7 6 3 3 2 3 6 8 5 2 1 4 0 5 2 6 8 5 7 9 0 1 2 4 2 1 3 4 5 8 11 13 15 16 15 14 14 15 15 16 16 13 13 12 11 12 13 11 10 11 12 10 11 9 8 8 8 8 8 9 8 8 8 8 7 6 7 6 5 6 5 6
6 4 5 3 4 0 1 3 2 4 1 2 3 6 6 4 6 4 6 5 2 1 3 3 3 4 5 4 9 7 8 4 4 13 10 9 12 12 6 2 2 6 8 8 9 11 13 16 17 16 17 16 16 17 15 14 12 12 13 14 15 15 14 13 12 12 12 10 8 7 8 8 8 7 7 7 6 7 8 8 8 7 6 5 5 4
1 3 3 5 5 6 4 4 2 3 1 2 2 2 7 1 5 1 2 0 4 2 5 1 3 6 6 5 4 8 10 9 7 7 8 7 11 12 10 11 10 9 6 2 4 8 8 7 10 12 14 14 14 14 15 15 15 17 15 14 14 13 11 13 13 13 11 10 8 8 8 7 7 8 9 9 8 8 7 7 7 7 6 5 5 5
5 3 4 4 1 2 1 2 2 0 3 4 1 6 3 2 5 2 2 2 0 3 6 0 3 3 2 4 4 9 12 8 10 7 8 9 11 12 8 9 9 9 7 5 5 3 7 14 15 14 14 14 16 17 17 17 16 15 16 16 16 13 13 12 12 11 11 11 11 9 9 8 9 9 8 7 8 7 7 5 5 5 6 6 5 5
4 2 3 1 1 2 4 5 6 3 6 5 5 3 1 1 6 2 2 1 2 2 3 2 2 3 4 5 3 5 5 6 8 9 14 14 12 10 9 10 9 10 10 10 6 4 6 5 7 13 15 15 16 17 18 18 17 14 12 14 16 17 16 15 12 12 11 12 10 10 11 10 8 7 7 6 7 7 7 7 7 7 6 5 5 6
1 2 4 2 3 1 3 3 1 7 4 4 1 5 2 4 4 4 7 3 4 3 1 5 2 4 4 2 3 2 1 7 7 9 8 9 10 11 10 10 9 8 7 5 2 4 8 6 4 6 6 10 11 9 11 12 11 14 14 14 14 14 13 12 12 11 11 11 11 10 8 8 9 8 8 7 7 8 8 7 7 6 5 6 5 5
1 2 2 4 3 2 3 0 2 2 2 8 9 4 4 1 3 3 1 2 4 3 5 3 2 4 4 4 5 3 2 6 7 7 5 5 5 5 6 8 8 9 9 8 9 9 8 2 1 1 3 4 4 5 7 9 13 14 13 14 14 14 13 13 13 11 12 11 11 11 11 10 9 9 8 7 7 8 7 6 7 6 6 5 5 5
2 0 3 2 3 3 5 2 3 2 3 1 1 3 4 5 6 3 8 2 1 3 2 3 8 6 6 3 6 5 1 5 4 7 6 5 4 4 4 5 6 8 9 9 10 9 6 9 5 3 4 3 3 5 8 10 10 10 11 12 12 11 11 13 11 12 12 10 10 12 11 10 8 9 7 8 7 8 7 6 6 5 5 6 5 5
3 2 3 1 3 4 5 8 3 1 2 3 4 1 0 1 2 1 2 5 1 2 2 4 2 10 5 5 4 4 4 4 3 5 5 4 4 4 3 4 4 4 5 6 7 6 4 4 5 6 6 7 6 5 5 5 6 5 8 12 13 14 15 14 15 13 11 10 9 10 10 9 9 8 8 9 7 8 7 6 6 5 7 5 4 3
5 2 1 3 4 4 7 4 3 8 3 4 3 3 4 2 1 1 3 4 2 2 0 1 2 8 4 1 3 5 3 3 2 4 5 5 5 5 6 7 7 11 11 11 9 8 5 3 5 7 7 7 6 6 7 6 5 6 6 6 8 13 16 14 12 11 10 9 9 8 8 9 8 9 9 9 8 8 7 6 6 5 6 5 4 4
2 2 3 2 4 7 7 6 4 6 6 2 1 2 1 1 2 3 0 1 1 4 5 6 7 6 5 1 3 5 4 4 2 2 3 5 5 6 8 7 7 7 10 11 11 12 12 11 8 6 8 5 6 6 9 10 10 9 10 8 2 4 6 9 11 11 11 10 9 8 9 9 9 9 9 9 7 8 7 7 6 5 5 5 4 4
2 2 1 2 3 5 3 2 3 2 4 3 1 1 0 2 3 6 2 3 1 3 2 1 5 8 7 6 6 8 9 4 1 1 2 4 4 6 6 8 9 9 8 8 10 11 10 8 6 8 9 9 7 6 5 6 8 9 11 10 9 7 3 4 7 5 10 10 10 9 9 9 8 9 8 8 7 8 7 7 6 5 4 5 5 3
1 1 3 6 7 8 8 5 3 1 1 3 7 5 5 3 2 4 3 2 4 3 3 5 4 10 13 10 6 8 8 7 9 8 6 4 4 4 5 6 6 6 6 7 6 7 8 11 11 7 8 8 8 9 5 5 8 8 6 6 7 8 9 9 4 4 3 5 7 7 8 8 8 8 7 7 7 6 5 5 5 5 4 3 4 5
1 0 3 5 6 7 8 7 4 3 6 6 7 13 10 3 2 1 3 8 5 2 9 3 5 2 10 9 5 5 6 6 7 7 7 7 6 5 3 4 6 7 7 7 8 9 8 8 9 10 9 9 8 8 10 8 7 9 12 12 10 9 9 9 10 9 7 6 6 7 7 6 6 7 7 6 6 6 5 4 4 4 4 4 5 5
0 2 3 3 4 5 8 8 7 5 5 6 8 7 8 4 1 5 5 6 5 4 9 8 4 4 7 5 5 5 4 3 5 5 3 1 4 7 9 9 8 8 7 8 7 7 7 8 8 9 10 9 10 10 8 6 5 5 7 9 10 10 11 11 11 10 9 7 7 5 2 3 3 4 5 5 5 5 5 4 4 4 4 4 5 4
1 2 4 5 6 3 4 6 6 8 5 6 8 7 3 3 6 5 5 4 6 6 8 9 6 8 5 4 4 4 3 4 3 1 4 9 7 6 7 7 7 7 8 8 8 7 6 7 6 7 9 10 10 12 13 12 9 5 3 2 3 4 3 8 11 12 11 10 10 8 6 5 4 5 5 5 5 5 5 5 4 5 5 4 4 4
2 5 2 1 1 3 3 6 5 7 8 8 9 3 2 3 4 5 3 5 4 4 4 3 3 5 3 2 1 1 3 3 6 8 6 5 6 6 5 5 6 6 6 6 6 7 7 7 8 8 7 8 10 11 10 10 11 7 6 6 5 9 9 7 10 12 13 12 11 12 10 7 6 6 7 5 5 4 5 5 5 5 4 4 4 4
4 4 2 2 4 4 2 3 7 4 5 6 4 1 3 5 7 4 3 2 0 4 3 0 4 6 2 4 3 1 3 6 5 4 5 5 4 4 4 4 4 5 6 7 7 6 7 8 8 8 8 8 8 10 10 9 10 8 6 7 6 6 9 10 9 11 12 13 15 16 16 13 10 8 6 6 6 6 6 5 5 4 4 4 3 1
2 0 1 1 3 3 6 6 3 2 5 12 8 4 8 9 5 1 1 1 2 2 1 1 5 2 1 2 3 6 4 4 4 4 3 4 3 3 4 4 4 4 5 6 7 7 6 7 6 7 8 6 6 8 11 10 8 11 10 4 7 4 9 11 12 10 10 9 8 10 12 12 11 8 8 7 7 6 6 5 4 4 4 4 3 2
5 7 6 3 4 2 2 1 1 2 8 9 3 6 5 1 2 0 1 2 1 1 3 4 1 1 1 3 4 4 4 3 2 4 4 2 1 1 3 3 4 4 5 5 5 5 6 7 7 6 5 6 6 6 8 11 10 10 10 3 2 1 5 8 9 11 11 11 12 14 15 15 14 13 11 9 8 7 6 6 6 6 5 4 3 4
5 4 5 3 3 6 3 2 2 7 12 3 1 3 4 6 6 5 4 2 1 1 4 4 1 0 0 0 0 2 3 3 3 5 4 3 3 2 1 3 4 4 6 7 7 7 6 7 8 9 10 8 7 6 6 9 13 11 8 0 6 6 7 6 7 11 11 12 11 11 14 15 15 14 12 10 8 7 6 6 5 6 4 5 6 6
6 8 3 3 3 1 1 3 2 13 2 2 3 5 3 3 2 0 1 0 1 3 6 4 3 1 2 2 2 3 4 6 4 6 4 3 1 0 3 4 5 5 7 7 7 7 7 8 8 8 10 11 11 12 8 8 10 11 8 3 4 6 6 2 3 2 7 9 9 12 13 13 14 13 11 10 8 7 6 6 7 6 5 5 5 4
11 3 4 6 3 8 4 7 11 4 9 5 2 4 4 6 2 5 6 2 1 1 4 3 2 3 2 4 3 3 6 4 2 4 4 3 2 2 3 5 5 7 7 7 6 8 7 7 7 7 8 10 12 13 13 10 9 10 9 3 4 7 8 9 7 3 2 8 5 3 4 9 11 10 9 9 9 7 7 6 5 6 6 7 6 5
6 7 6 6 4 7 8 5 3 2 8 1 2 5 8 3 3 4 5 1 2 2 2 2 0 2 3 3 3 4 5 11 12 7 2 4 4 5 6 6 6 6 7 7 7 7 7 6 6 7 8 11 13 14 12 11 10 9 11 6 6 7 8 9 9 12 13 11 13 12 11 10 10 9 8 7 7 6 5 6 6 7 6 8 7 6
5 5 4 10 2 1 2 5 4 5 5 1 5 6 7 5 2 1 1 4 2 1 2 1 1 1 1 2 4 5 9 7 10 9 4 3 6 5 7 9 8 8 8 7 7 9 9 7 7 10 10 10 13 14 11 11 10 9 10 7 9 8 11 11 9 4 6 10 12 13 11 11 11 9 9 7 6 7 8 8 7 5 5 6 7 6
7 3 3 1 2 2 1 2 6 1 1 2 5 5 9 7 2 4 1 3 2 3 4 1 2 1 2 2 1 1 0 8 10 11 5 5 6 7 6 11 12 10 9 8 7 7 9 9 9 11 11 12 14 12 11 10 9 10 10 8 9 12 11 13 12 14 10 8 7 6 9 8 8 7 8 8 8 7 7 5 6 6 6 5 6 6
6 6 1 3 2 2 0 3 2 3 2 1 3 5 7 2 3 3 4 2 4 3 2 2 2 2 2 2 2 4 6 8 10 11 9 8 10 12 8 6 9 8 10 10 10 8 9 10 9 11 13 12 12 12 10 9 9 11 9 8 9 15 15 15 13 11 13 12 12 10 10 7 7 8 7 8 8 7 6 6 7 6 5 6 4 4
3 2 3 3 1 3 4 4 6 1 1 3 5 5 3 3 2 1 3 3 4 4 3 3 3 4 4 4 4 6 7 7 9 10 10 9 8 11 12 10 9 10 9 9 11 10 10 11 11 12 12 12 12 12 11 9 10 11 9 8 12 13 12 14 17 16 12 10 9 10 10 8 8 9 8 6 7 6 5 5 6 7 6 5 6 5
3 2 2 1 2 2 0 1 1 1 1 4 5 5 2 2 4 3 3 5 3 3 3 4 3 4 2 4 4 6 7 8 9 11 12 11 10 11 11 10 10 12 13 13 14 11 10 12 12 12 12 11 11 11 10 8 10 9 7 10 5 5 11 15 15 14 15 13 11 11 9 8 9 8 6 6 6 7 7 5 4 4 4 5 5 4
1 2 2 1 1 1 1 1 1 2 4 2 2 1 2 3 3 4 2 4 4 3 3 2 3 3 3 4 7 7 8 8 10 9 11 12 10 8 8 9 9 10 12 13 13 13 11 12 12 12 12 11 11 10 9 8 5 5 7 8 8 7 9 9 13 13 12 12 11 10 10 9 8 7 7 8 7 6 4 4 4 4 5 5 5 4
1 0 1 3 3 1 2 2 4 5 3 5 3 5 3 3 1 2 1 2 1 2 2 1 4 5 5 6 7 7 8 8 9 10 9 12 11 9 9 10 10 11 13 14 15 13 11 12 13 12 12 11 11 8 7 5 2 5 10 8 9 10 15 14 16 16 13 10 8 10 9 8 7 7 7 6 6 5 4 3 3 3 2 4 3 4
1 1 3 1 5 3 6 8 3 3 2 4 4 3 2 2 1 1 1 1 2 3 3 4 5 6 7 5 6 7 8 8 9 10 9 10 10 10 9 10 11 11 12 12 12 12 11 11 11 11 11 10 8 5 1 1 3 9 10 10 10 11 14 14 14 14 13 12 8 9 8 9 7 6 7 7 5 6 5 5 5 4 3 4 4 4
2 1 0 2 2 3 6 1 5 10 9 8 3 4 4 3 2 2 2 3 4 5 5 5 6 6 7 5 6 9 11 9 9 10 10 9 10 10 10 11 12 12 12 13 14 12 12 10 10 9 6 6 6 3 1 2 3 5 9 8 11 11 15 16 15 13 12 13 10 8 8 9 7 6 5 5 4 2 3 4 4 4 4 5 5 4
6 1 8 3 3 4 6 6 10 9 6 6 5 1 3 3 3 3 4 4 4 5 5 7 5 7 5 7 9 9 11 9 9 11 10 9 10 9 10 11 12 12 13 13 13 12 12 11 9 6 7 8 7 3 3 2 1 1 6 7 6 10 10 11 12 12 11 11 9 7 7 7 8 7 5 4 4 4 4 2 3 6 6 6 6 6
6 3 6 3 7 8 8 8 8 7 7 3 3 4 3 3 3 4 4 4 4 5 6 7 5 7 6 9 8 8 9 11 10 11 11 10 9 9 10 11 12 13 13 13 14 12 11 7 6 6 10 9 7 5 5 1 6 5 5 6 9 11 11 11 12 11 10 8 7 6 5 7 6 5 6 5 5 4 5 7 6 6 4 5 7 8
4 8 5 3 6 8 7 8 3 6 10 7 4 5 5 4 4 6 5 5 5 6 7 8 9 7 7 8 8 8 10 10 10 7 10 10 10 11 11 12 12 13 13 13 12 12 9 6 6 9 10 11 7 6 4 6 4 4 6 10 11 11 12 12 12 11 9 8 7 6 6 6 5 6 7 7 6 4 1 1 3 4 7 7 11 13
5 5 2 6 4 7 7 7 4 5 7 8 6 3 4 5 5 7 7 8 7 7 7 7 9 9 9 7 4 5 8 8 9 8 9 9 10 11 11 13 14 13 12 12 11 8 7 7 8 7 11 8 3 4 9 11 11 8 5 8 9 12 13 12 10 9 9 9 8 7 6 7 8 8 7 6 5 3 2 1 2 1 7 8 8 9
Wind_Direction
150 175 211 214 221 222 247 206 189 197 171 207 107 108 224 34 283 273 310 345 355 61 41 197 225 221 239 238 270 269 284 317 249 199 187 182 187 187 185 184 186 184 191 185 173 174 173 175 171 155 145 145 149 154 154 151 160 161 160 158 170 180 163 155 159 146 143 124 89 64 153 148 229 123 112 99 108 108 123 96 73 54 56 59 49 42
71 215 248 225 221 197 212 187 114 89 77 124 94 24 327 37 348 289 293 326 339 134 356 44 33 320 283 289 285 294 148 247 232 239 236 188 194 193 188 188 189 195 185 148 159 181 168 161 154 148 150 151 155 172 161 161 167 170 162 168 178 166 165 169 172 173 156 175 168 164 183 165 187 118 105 106 115 140 120 91 91 93 76 69 54 25
198 219 242 234 221 180 174 187 153 133 98 60 102 121 352 299 248 295 329 343 350 83 255 26 42 281 278 272 246 254 251 240 213 213 216 189 190 196 199 195 190 177 172 166 167 161 170 169 158 157 164 172 166 164 168 168 159 165 169 184 172 174 170 175 170 154 167 179 144 155 166 156 147 312 126 133 176 127 75 48 99 105 88 73 63 53
272 270 243 241 122 146 127 123 78 67 64 104 53 44 268 236 64 312 305 342 350 71 288 229 22 289 293 280 256 211 197 260 265 225 243 228 193 191 195 193 190 181 156 166 168 173 174 176 169 165 172 172 163 164 168 165 168 169 177 182 174 178 180 167 169 169 169 147 149 131 131 120 111 160 89 61 40 51 64 58 36 75 83 82 75 77
218 240 250 144 173 176 190 167 91 77 334 304 157 166 233 293 229 154 245 324 328 329 113 47 9 340 307 295 317 303 141 194 263 272 277 246 225 233 216 183 188 174 172 173 174 171 166 172 181 182 180 165 169 174 174 174 174 177 181 183 177 176 179 171 160 147 143 116 104 101 82 88 74 49 46 62 30 19 118 98 57 125 121 106 88 66
271 259 231 158 191 176 160 195 180 128 290 322 250 190 222 236 253 263 270 33 25 337 320 82 2 298 287 287 241 253 324 310 271 220 247 245 215 190 195 202 205 199 182 172 173 174 178 182 184 183 171 175 179 180 184 177 179 174 177 177 173 173 173 160 157 152 150 141 138 135 128 122 115 121 129 154 163 153 149 186 257 301 126 126 105 72
215 261 171 194 195 181 156 166 228 131 181 111 270 192 213 223 215 236 131 75 162 211 281 89 187 271 312 282 266 280 328 288 295 212 247 247 208 196 204 203 204 181 182 184 169 169 173 183 182 185 182 183 181 190 178 178 179 176 174 177 172 171 174 160 156 157 143 140 146 153 159 158 164 162 214 212 192 154 182 126 128 195 337 26 90 56
354 11 80 81 123 124 91 206 245 131 107 235 238 166 219 227 272 257 144 170 228 249 309 29 125 212 299 284 244 275 283 282 292 271 252 249 208 204 207 207 204 186 171 168 172 177 183 183 183 186 191 186 189 180 171 176 175 177 179 176 173 170 171 167 156 158 156 147 147 141 143 153 153 170 179 185 178 173 149 129 135 73 327 342 227 67
249 282 177 134 125 127 181 209 211 141 131 220 251 199 242 195 182 139 97 111 157 104 298 321 318 1 270 265 293 276 297 294 280 272 251 241 215 210 211 207 202 192 176 171 174 180 183 187 193 189 185 191 180 168 176 182 184 180 175 173 167 171 172 169 159 156 162 149 156 154 149 150 172 166 168 161 144 146 130 109 57 109 334 349 39 84
306 208 221 167 137 194 227 227 170 146 112 279 192 123 65 84 102 129 109 80 3 50 291 284 249 247 279 276 311 354 239 266 260 270 264 235 217 210 217 213 208 201 165 173 181 183 188 188 188 190 185 175 183 184 183 179 168 171 170 173 172 176 177 169 163 156 161 154 146 148 164 162 170 167 148 140 152 150 137 136 181 148 155 280 72 73
237 267 190 115 183 201 184 222 159 172 212 237 118 206 24 24 5 10 67 95 56 13 271 247 243 132 303 264 234 229 226 221 264 279 264 244 220 223 220 210 207 203 178 160 175 186 189 192 190 183 181 185 179 182 176 170 173 171 175 176 179 182 173 170 164 160 165 163 160 163 171 171 169 173 157 150 162 145 132 157 201 191 225 275 245 32
331 346 98 251 169 171 144 208 221 173 198 110 78 121 44 333 6 29 343 41 80 277 266 30 165 111 188 290 278 232 281 280 255 266 281 216 213 223 221 217 216 215 201 158 157 182 188 186 186 179 186 183 182 167 175 179 173 176 181 179 180 178 179 174 167 166 169 168 172 167 168 172 173 167 167 170 172 173 167 173 185 200 121 230 259 304
327 261 243 305 241 158 172 219 298 37 44 77 65 51 119 264 36 341 10 342 201 218 249 184 132 49 247 234 260 294 287 290 251 224 230 206 213 209 209 205 215 214 206 160 165 159 168 176 177 183 185 178 176 182 185 185 182 182 183 182 179 185 184 177 170 173 172 173 174 172 175 175 171 170 172 175 173 175 169 175 174 165 184 180 177 217
284 292 320 286 332 230 117 165 263 343 7 113 146 126 89 97 58 274 269 218 300 295 261 254 191 241 243 284 245 236 259 249 280 253 234 236 218 208 201 199 201 202 199 180 165 165 172 177 176 179 181 183 187 189 189 186 184 185 185 186 186 188 186 177 172 174 173 183 180 177 176 175 169 174 175 179 173 178 176 172 175 175 175 180 187 185
348 334 307 161 272 238 132 183 175 184 157 188 164 144 171 144 161 226 202 211 217 212 279 295 94 235 89 247 239 217 248 313 296 297 354 189 254 252 270 66 136 172 194 174 173 173 175 180 178 176 181 187 189 192 191 187 187 184 187 188 193 187 187 179 178 173 180 184 183 183 181 174 174 172 177 182 177 172 172 181 173 180 176 176 191 182
204 206 247 225 218 162 19 303 130 113 66 268 145 84 75 203 130 177 200 168 219 294 337 327 214 194 201 263 301 341 335 54 343 10 12 25 29 24 21 44 185 192 185 181 181 185 181 180 180 180 185 186 191 192 190 187 184 186 192 191 192 188 185 186 178 181 182 182 181 178 178 182 174 172 170 173 178 177 173 174 173 180 181 185 172 187
139 243 251 301 60 77 20 352 283 133 179 262 93 168 214 153 121 199 338 183 96 55 253 195 332 309 303 328 307 9 34 27 22 28 21 31 48 47 52 54 34 10 351 329 198 175 184 178 184 187 186 191 190 187 190 189 187 191 190 190 193 193 188 186 185 182 180 174 172 184 180 170 172 169 171 175 177 178 182 172 175 171 181 168 161 166
140 237 296 42 359 106 247 157 31 314 151 87 234 241 259 121 118 121 249 316 57 190 261 14 219 296 25 287 329 6 50 17 36 18 32 40 56 56 38 44 47 37 34 8 338 308 191 183 188 194 194 189 186 189 193 194 192 191 189 188 188 189 189 192 187 183 177 175 180 179 180 181 178 176 174 169 170 171 163 174 165 161 152 170 167 153
109 310 293 292 223 284 335 40 352 343 52 70 312 224 137 176 294 330 56 309 279 273 264 315 247 257 180 248 357 26 49 28 28 23 35 27 31 39 33 34 27 34 31 22 355 324 302 287 221 191 193 196 194 191 191 193 191 189 191 191 188 190 191 186 187 186 185 180 180 180 182 178 177 174 170 170 161 161 162 165 165 163 168 150 148 138
58 161 298 298 42 269 31 61 9 306 337 151 132 27 279 105 182 182 198 198 132 242 70 287 20 253 226 209 173 84 352 60 56 47 52 42 33 33 16 19 30 36 37 56 50 300 277 267 260 266 229 196 193 198 206 198 189 191 193 190 197 196 187 182 186 184 184 189 182 181 171 174 173 171 170 169 159 166 169 169 163 158 148 163 151 148
54 106 208 279 272 15 359 3 147 127 56 345 359 335 2 299 240 147 319 129 167 176 181 188 296 276 260 212 163 150 88 79 73 74 73 67 52 34 27 26 13 17 18 15 22 5 341 299 303 306 297 274 258 227 198 191 194 198 193 195 194 188 189 187 188 184 191 184 188 174 175 174 169 172 168 164 166 164 171 169 164 162 161 141 153 148
55 43 200 306 351 296 240 217 143 131 154 160 178 259 279 329 339 5 287 343 50 105 210 140 241 265 263 229 163 127 131 76 74 81 58 46 49 40 27 21 21 12 8 11 13 13 355 341 312 239 214 237 236 210 207 208 210 204 194 194 192 192 189 189 189 193 191 189 184 181 179 171 167 165 163 162 166 164 168 169 164 160 144 156 174 153
145 143 95 173 199 226 264 295 279 74 140 171 149 260 87 143 78 131 245 273 356 264 128 150 180 253 232 211 139 114 84 94 94 84 72 45 17 17 26 25 19 35 11 11 17 11 357 338 316 295 270 226 198 211 231 209 191 206 217 202 192 188 193 192 193 192 187 184 185 187 175 162 164 162 162 159 164 164 165 165 161 156 153 161 167 160
81 74 30 280 297 303 324 297 1 32 48 35 11 55 78 45 115 158 213 216 216 267 265 303 237 261 276 261 129 90 73 68 32 54 61 20 7 16 12 13 13 7 1 2 4 1 8 36 334 326 306 272 221 187 182 195 220 190 190 227 232 204 196 195 190 183 180 183 186 179 166 168 162 161 162 163 164 164 164 161 161 160 155 163 153 155
20 298 103 16 356 345 346 351 358 344 43 66 295 307 115 100 117 218 109 119 14 231 171 133 235 268 270 327 339 74 116 101 59 320 33 35 3 3 0 8 13 15 11 8 9 3 5 10 6 351 328 283 245 208 186 188 190 207 205 190 190 309 268 225 191 174 177 177 175 173 174 170 164 167 168 164 162 163 163 162 158 161 157 149 154 156
190 217 102 228 249 269 285 306 272 288 287 271 199 318 54 48 358 32 17 353 79 275 119 165 257 261 277 321 348 7 358 13 151 160 146 78 52 11 9 5 9 24 24 20 11 15 4 349 357 10 359 340 318 289 254 211 205 213 209 180 152 131 99 341 306 221 172 170 171 177 177 170 166 171 170 163 162 163 164 159 154 159 154 151 152 130
112 70 126 152 161 194 203 207 236 145 336 307 285 277 284 85 97 97 99 115 209 245 289 244 218 285 298 310 15 354 349 331 335 346 27 71 44 34 30 30 27 25 26 22 17 9 6 4 355 2 5 348 329 319 303 249 213 206 212 197 157 156 150 148 150 279 266 170 168 170 177 171 171 162 163 162 162 156 152 154 152 147 153 152 135 123
59 2 265 158 189 196 188 195 227 219 250 261 279 287 299 120 124 233 224 249 181 65 289 242 220 230 280 301 327 335 321 322 335 350 11 26 29 33 30 42 32 28 21 20 21 15 7 352 355 355 2 349 342 326 312 302 269 224 208 208 201 179 155 147 149 166 192 186 171 179 178 170 157 156 156 154 151 154 155 145 141 146 129 116 113 120
125 208 267 161 244 196 190 203 205 217 225 236 249 258 268 278 187 240 230 216 136 171 232 262 185 208 265 284 330 327 307 301 356 14 9 351 16 15 20 20 19 19 15 19 13 7 2 0 349 350 351 347 343 340 325 305 297 305 285 253 219 185 169 150 142 148 162 168 161 138 115 107 126 129 135 144 146 146 147 146 140 125 117 110 114 121
64 253 237 205 243 219 211 210 215 215 240 252 252 251 226 216 255 222 241 215 178 210 220 247 271 241 261 302 325 341 1 52 39 352 19 25 8 6 12 14 18 16 12 3 358 353 350 343 345 344 347 349 347 341 336 329 314 292 282 292 256 222 210 159 158 155 152 154 147 124 128 143 144 142 140 144 154 152 145 141 138 129 119 120 127 136
63 281 329 308 357 300 277 262 249 231 225 253 249 176 154 228 250 246 224 239 197 255 266 258 299 284 262 259 297 35 52 66 43 33 13 344 360 2 7 19 17 11 355 350 349 345 336 335 339 341 347 347 342 333 327 323 312 292 276 261 230 193 185 179 165 162 160 162 152 138 137 142 150 147 155 162 148 143 141 146 141 125 121 126 136 157
20 282 7 6 330 296 280 255 252 270 289 277 273 66 301 299 291 263 223 251 156 265 276 241 280 265 268 309 262 121 57 54 47 9 354 337 323 359 28 20 8 350 346 338 335 334 332 332 333 335 336 333 331 325 322 317 313 306 257 244 243 215 184 182 185 173 169 163 158 156 153 154 156 153 162 153 156 156 157 148 131 129 131 134 149 170
210 311 335 6 302 257 258 237 269 21 358 288 271 213 220 238 241 279 296 90 212 176 121 200 235 219 234 289 3 356 33 48 30 335 322 317 329 36 43 6 338 326 327 324 322 321 319 319 319 316 319 321 314 316 316 315 312 305 297 250 239 206 194 182 171 172 166 163 160 136 125 127 139 157 158 162 159 159 154 143 126 124 137 167 184 122
161 190 246 168 230 246 257 44 50 43 253 236 233 174 145 173 168 147 311 172 218 129 201 174 198 268 318 10 31 329 359 343 334 285 260 246 92 32 352 322 307 289 295 296 289 292 300 304 306 299 289 287 292 295 307 310 302 299 285 263 118 200 223 181 173 167 164 160 156 153 151 152 155 157 160 160 158 156 151 143 163 165 164 144 111 91
235 227 218 177 216 249 251 8 338 252 257 210 207 202 163 150 149 165 168 203 241 346 78 87 88 22 251 243 251 260 261 259 262 265 261 161 156 158 282 298 292 295 295 291 297 298 295 296 303 313 316 316 309 300 302 306 308 309 305 270 111 81 23 314 196 161 161 163 162 159 157 158 155 152 153 154 156 156 160 167 152 161 158 136 137 133
226 210 218 234 164 12 131 157 217 248 239 257 283 275 214 106 87 23 321 47 320 165 157 143 198 223 240 249 266 266 264 273 257 254 226 173 146 184 307 299 291 287 288 278 274 279 286 291 293 301 306 307 312 308 296 286 292 297 297 297 145 120 105 86 294 199 155 153 158 160 160 156 145 146 148 149 153 158 165 160 163 142 135 120 117 129
216 165 167 254 175 219 190 181 233 343 316 281 244 257 236 241 173 177 224 258 233 172 125 157 198 222 233 223 235 260 267 257 178 220 250 217 244 246 264 282 278 278 272 271 257 265 259 265 276 284 294 297 298 297 296 294 290 292 288 264 235 155 143 144 151 198 174 124 109 148 159 138 136 141 144 146 154 164 161 149 126 135 132 125 136 136
205 198 197 180 249 182 227 261 316 326 265 277 254 315 354 319 130 142 106 262 290 269 198 142 230 274 279 284 301 311 339 356 326 302 239 290 298 301 295 282 277 268 264 267 271 261 261 262 269 277 278 288 288 284 285 287 288 288 286 234 210 186 154 152 173 177 171 169 165 168 160 145 134 143 142 145 156 164 150 133 141 153 158 139 154 165
326 215 159 175 220 77 189 218 233 228 242 215 313 320 330 353 93 68 70 269 254 287 294 203 312 250 250 317 327 10 15 330 291 281 263 265 299 294 293 291 284 281 279 272 274 283 281 275 272 279 283 278 280 278 277 280 285 283 274 238 176 184 166 165 155 173 189 174 167 163 146 141 146 150 145 154 150 138 138 150 155 156 148 154 158 170
15 12 50 70 256 184 131 194 249 195 237 324 322 325 318 327 25 78 267 269 265 267 271 247 258 253 272 200 181 64 243 290 287 289 300 290 283 287 286 294 297 295 292 287 279 270 278 285 295 292 290 286 281 280 274 275 276 272 260 237 178 167 173 168 170 167 163 139 124 125 133 141 139 140 139 140 139 136 137 137 128 152 169 166 163 165
4 343 43 235 213 284 303 272 324 304 332 290 279 301 301 333 56 73 215 243 270 273 260 203 204 231 224 229 191 273 224 220 264 284 303 306 310 302 289 271 276 281 286 292 291 292 289 285 276 279 282 283 282 281 274 267 268 265 252 222 193 182 172 166 154 148 144 144 150 158 135 135 141 140 137 136 138 141 150 155 163 172 169 174 174 161
357 8 305 29 5 203 196 186 237 216 246 275 262 244 293 32 33 207 232 223 262 261 244 199 205 238 211 217 217 231 258 264 276 288 292 292 283 282 291 296 294 292 284 283 288 291 288 285 280 278 279 274 275 274 269 264 261 258 242 215 202 188 168 156 150 147 145 149 157 139 140 149 142 135 137 136 127 128 168 191 169 176 182 167 167 181
289 359 280 359 303 345 80 205 306 238 261 183 289 356 3 75 245 220 277 297 213 211 212 248 231 265 197 261 247 250 272 280 277 281 285 289 286 285 288 293 296 297 301 304 302 293 282 283 281 277 274 276 275 272 263 257 253 236 209 199 206 186 166 158 147 148 145 151 142 140 144 141 131 129 127 135 153 163 191 185 170 185 157 161 169 167
259 43 315 308 194 243 273 264 190 160 270 209 192 316 253 232 252 263 225 283 286 250 252 269 292 250 245 240 264 266 255 263 278 276 280 279 280 278 279 284 290 294 294 290 284 287 285 277 276 277 275 274 271 266 257 242 262 229 175 186 135 156 141 135 122 117 117 123 142 144 132 132 134 138 147 158 168 170 161 163 186 172 176 167 156 147
354 106 192 240 305 221 215 216 253 270 224 248 203 231 227 275 274 253 231 235 259 302 220 189 265 274 247 250 261 256 271 259 258 267 271 278 284 284 287 288 289 291 289 290 290 289 283 276 277 276 275 271 266 262 257 249 245 216 178 168 146 160 141 136 125 124 131 136 141 128 133 133 140 149 149 163 156 159 158 175 155 161 133 127 135 159
224 284 259 215 258 290 278 252 225 248 272 288 249 223 179 221 244 110 114 320 250 232 211 220 245 247 258 239 245 265 249 264 276 277 274 277 279 279 282 285 285 282 282 285 288 286 279 276 273 271 275 279 265 252 222 252 203 172 171 147 145 141 127 121 123 128 134 136 144 137 139 138 153 163 163 171 165 158 171 162 163 179 161 155 175 186
273 207 73 249 266 359 284 335 336 310 307 298 287 217 208 186 213 194 220 211 233 237 243 239 237 257 262 264 244 259 272 269 271 273 275 276 278 280 283 283 284 286 289 291 288 288 283 274 267 263 270 288 291 307 320 271 266 161 135 124 141 146 135 138 138 137 138 140 145 143 145 150 156 164 163 151 165 128 109 127 152 163 167 180 183 199
302 343 343 248 251 216 251 290 294 290 271 263 228 288 303 281 279 262 226 235 246 254 254 267 274 278 267 266 256 256 266 268 269 275 275 271 274 280 280 282 287 289 286 285 286 283 275 264 259 284 290 267 268 256 240 166 201 104 121 115 120 126 123 125 128 128 133 138 139 145 145 141 153 149 142 131 126 101 81 94 145 157 176 181 195 206
242 326 258 273 293 289 290 289 288 298 300 282 293 302 275 256 271 289 283 275 273 273 272 270 248 250 256 260 268 267 272 272 263 264 269 275 277 275 277 281 282 281 281 284 283 279 266 262 275 276 274 284 283 268 262 190 150 155 155 140 148 143 136 132 127 129 127 129 130 143 140 132 151 145 116 90 81 123 164 164 171 190 224 230 194 194
273 257 253 292 296 288 262 281 350 335 307 305 295 269 284 294 290 286 294 296 279 276 270 268 274 263 244 248 257 262 262 268 272 269 269 268 269 274 278 279 277 278 279 277 278 269 258 258 272 275 277 266 250 235 182 144 157 147 182 164 154 143 134 128 125 124 129 130 134 140 124 132 120 90 100 110 121 136 111 10 172 195 181 222 228 225
221 252 250 246 225 262 276 274 258 239 257 260 276 248 252 274 278 281 281 274 272 257 257 264 276 286 287 284 261 254 264 267 275 276 273 276 275 271 272 275 278 279 277 278 282 281 276 278 274 282 260 250 185 138 144 158 167 178 169 143 143 137 129 130 129 132 134 136 145 141 125 94 90 110 117 132 137 129 108 29 28 226 245 248 258 229